Time,TemperatureF,DewpointF,PressureIn,WindDirection,WindDirectionDegrees,WindSpeedMPH,WindSpeedGustMPH,Humidity,HourlyPrecipIn,Conditions,Clouds,dailyrainin,SoftwareType,DateUTC
2013-03-12 00:01:00,34.9,26.8,30.04,NW,308,0.0,0.0,72,0.00,,,0.00,Wunderground v.1.15,2013-03-12 05:01:00,
2013-03-12 00:06:00,34.8,26.7,30.04,WNW,283,0.0,1.0,72,0.00,,,0.00,Wunderground v.1.15,2013-03-12 05:06:00,
2013-03-12 00:11:00,34.7,26.9,30.04,NW,319,0.0,1.0,73,0.00,,,0.00,Wunderground v.1.15,2013-03-12 05:11:00,
2013-03-12 00:21:00,34.7,26.6,30.04,WNW,298,0.0,0.0,72,0.00,,,0.00,Wunderground v.1.15,2013-03-12 05:21:00,
2013-03-12 00:36:00,34.1,26.0,30.04,WNW,290,0.0,0.0,72,0.00,,,0.00,Wunderground v.1.15,2013-03-12 05:36:00,
2013-03-12 00:46:00,33.9,25.8,30.04,West,269,1.0,3.0,72,0.00,,,0.00,Wunderground v.1.15,2013-03-12 05:46:00,
2013-03-12 00:56:00,33.6,25.9,30.04,WNW,290,0.0,1.0,73,0.00,,,0.00,Wunderground v.1.15,2013-03-12 05:56:00,
2013-03-12 01:01:00,33.4,25.7,30.03,WNW,297,0.0,0.0,73,0.00,,,0.00,Wunderground v.1.15,2013-03-12 06:01:00,
2013-03-12 01:11:00,33.1,25.7,30.04,West,276,0.0,0.0,74,0.00,,,0.00,Wunderground v.1.15,2013-03-12 06:11:00,
2013-03-12 01:16:00,32.9,25.5,30.04,West,269,0.0,0.0,74,0.00,,,0.00,Wunderground v.1.15,2013-03-12 06:16:00,
2013-03-12 01:31:00,32.4,25.7,30.03,West,260,0.0,0.0,76,0.00,,,0.00,Wunderground v.1.15,2013-03-12 06:31:00,
2013-03-12 01:41:00,31.6,25.5,30.04,West,260,0.0,0.0,78,0.00,,,0.00,Wunderground v.1.15,2013-03-12 06:41:00,
2013-03-12 01:56:00,30.8,25.7,30.07,West,262,0.0,0.0,81,0.00,,,0.00,Wunderground v.1.15,2013-03-12 06:56:00,
2013-03-12 02:01:00,30.6,25.5,30.07,West,262,0.0,0.0,81,0.00,,,0.00,Wunderground v.1.15,2013-03-12 07:01:00,
2013-03-12 02:06:00,30.4,25.6,30.07,West,262,0.0,0.0,82,0.00,,,0.00,Wunderground v.1.15,2013-03-12 07:06:00,
2013-03-12 02:16:00,30.4,25.3,30.07,West,279,0.0,1.0,81,0.00,,,0.00,Wunderground v.1.15,2013-03-12 07:16:00,
2013-03-12 02:26:00,30.3,26.0,30.07,WSW,249,0.0,0.0,84,0.00,,,0.00,Wunderground v.1.15,2013-03-12 07:26:00,
2013-03-12 02:36:00,29.9,25.7,30.06,WSW,249,0.0,0.0,84,0.00,,,0.00,Wunderground v.1.15,2013-03-12 07:36:00,
2013-03-12 02:41:00,29.8,25.3,30.06,WSW,250,0.0,0.0,83,0.00,,,0.00,Wunderground v.1.15,2013-03-12 07:41:00,
2013-03-12 03:06:00,29.8,25.3,30.07,WSW,257,0.0,0.0,83,0.00,,,0.00,Wunderground v.1.15,2013-03-12 08:06:00,
2013-03-12 03:21:00,29.9,25.1,30.06,WSW,239,0.0,0.0,82,0.00,,,0.00,Wunderground v.1.15,2013-03-12 08:21:00,
2013-03-12 03:26:00,30.1,25.3,30.05,WSW,240,0.0,3.0,82,0.00,,,0.00,Wunderground v.1.15,2013-03-12 08:26:00,
2013-03-12 03:31:00,30.1,25.8,30.05,WSW,248,0.0,0.0,84,0.00,,,0.00,Wunderground v.1.15,2013-03-12 08:31:00,
2013-03-12 03:41:00,29.7,25.2,30.06,WNW,297,0.0,0.0,83,0.00,,,0.00,Wunderground v.1.15,2013-03-12 08:41:00,
2013-03-12 03:51:00,29.8,25.3,30.06,West,278,0.0,0.0,83,0.00,,,0.00,Wunderground v.1.15,2013-03-12 08:51:00,
2013-03-12 04:01:00,29.6,25.1,30.07,WSW,256,0.0,0.0,83,0.00,,,0.00,Wunderground v.1.15,2013-03-12 09:01:00,
2013-03-12 04:21:00,29.7,24.9,30.07,WNW,297,0.0,0.0,82,0.00,,,0.00,Wunderground v.1.15,2013-03-12 09:21:00,
2013-03-12 04:31:00,29.6,24.8,30.07,NW,309,0.0,0.0,82,0.00,,,0.00,Wunderground v.1.15,2013-03-12 09:31:00,
2013-03-12 04:46:00,29.6,24.8,30.06,WSW,254,0.0,0.0,82,0.00,,,0.00,Wunderground v.1.15,2013-03-12 09:46:00,
2013-03-12 04:56:00,29.4,24.9,30.06,NW,310,0.0,0.0,83,0.00,,,0.00,Wunderground v.1.15,2013-03-12 09:56:00,
2013-03-12 05:11:00,29.4,24.9,30.08,West,266,0.0,0.0,83,0.00,,,0.00,Wunderground v.1.15,2013-03-12 10:11:00,
2013-03-12 05:21:00,29.3,24.8,30.09,West,273,0.0,0.0,83,0.00,,,0.00,Wunderground v.1.15,2013-03-12 10:21:00,
2013-03-12 05:31:00,29.1,24.9,30.10,WSW,240,0.0,0.0,84,0.00,,,0.00,Wunderground v.1.15,2013-03-12 10:31:00,
2013-03-12 05:51:00,29.5,25.0,30.10,West,263,1.0,1.0,83,0.00,,,0.00,Wunderground v.1.15,2013-03-12 10:51:00,
2013-03-12 06:01:00,29.3,24.8,30.11,SW,228,0.0,0.0,83,0.00,,,0.00,Wunderground v.1.15,2013-03-12 11:01:00,
2013-03-12 06:06:00,29.2,25.0,30.11,SSW,210,0.0,0.0,84,0.00,,,0.00,Wunderground v.1.15,2013-03-12 11:06:00,
2013-03-12 06:11:00,29.1,24.9,30.11,WNW,283,0.0,0.0,84,0.00,,,0.00,Wunderground v.1.15,2013-03-12 11:11:00,
2013-03-12 06:16:00,29.0,24.8,30.11,West,263,0.0,0.0,84,0.00,,,0.00,Wunderground v.1.15,2013-03-12 11:16:00,
2013-03-12 06:26:00,28.8,24.6,30.11,West,262,0.0,0.0,84,0.00,,,0.00,Wunderground v.1.15,2013-03-12 11:26:00,
2013-03-12 06:31:00,28.9,24.7,30.11,WNW,292,0.0,0.0,84,0.00,,,0.00,Wunderground v.1.15,2013-03-12 11:31:00,
2013-03-12 06:41:00,29.1,24.9,30.11,WNW,299,0.0,0.0,84,0.00,,,0.00,Wunderground v.1.15,2013-03-12 11:41:00,
2013-03-12 06:51:00,29.1,24.9,30.12,WNW,285,0.0,0.0,84,0.00,,,0.00,Wunderground v.1.15,2013-03-12 11:51:00,
2013-03-12 07:11:00,29.2,25.0,30.12,WNW,283,0.0,0.0,84,0.00,,,0.00,Wunderground v.1.15,2013-03-12 12:11:00,
2013-03-12 07:16:00,29.1,24.9,30.13,WNW,290,0.0,0.0,84,0.00,,,0.00,Wunderground v.1.15,2013-03-12 12:16:00,
2013-03-12 07:21:00,29.2,25.0,30.13,SW,229,0.0,0.0,84,0.00,,,0.00,Wunderground v.1.15,2013-03-12 12:21:00,
2013-03-12 07:31:00,29.3,25.1,30.13,West,271,1.0,1.0,84,0.00,,,0.00,Wunderground v.1.15,2013-03-12 12:31:00,
2013-03-12 07:46:00,29.4,24.9,30.13,ENE,60,0.0,0.0,83,0.00,,,0.00,Wunderground v.1.15,2013-03-12 12:46:00,
2013-03-12 07:51:00,29.4,25.4,30.13,East,94,0.0,0.0,85,0.00,,,0.00,Wunderground v.1.15,2013-03-12 12:51:00,
2013-03-12 07:56:00,29.3,25.4,30.12,East,94,0.0,0.0,85,0.00,,,0.00,Wunderground v.1.15,2013-03-12 12:56:00,
2013-03-12 08:01:00,29.5,25.3,30.13,WNW,294,0.0,1.0,84,0.00,,,0.00,Wunderground v.1.15,2013-03-12 13:01:00,
2013-03-12 08:06:00,29.8,25.6,30.15,WNW,292,0.0,1.0,84,0.00,,,0.00,Wunderground v.1.15,2013-03-12 13:06:00,
2013-03-12 08:11:00,29.9,25.4,30.15,WNW,283,0.0,0.0,83,0.00,,,0.00,Wunderground v.1.15,2013-03-12 13:11:00,
2013-03-12 08:21:00,30.3,25.5,30.16,West,273,1.0,1.0,82,0.00,,,0.00,Wunderground v.1.15,2013-03-12 13:21:00,
2013-03-12 08:36:00,30.8,26.0,30.16,WSW,245,0.0,1.0,82,0.00,,,0.00,Wunderground v.1.15,2013-03-12 13:36:00,
2013-03-12 08:41:00,31.0,25.9,30.16,WSW,255,0.0,0.0,81,0.00,,,0.00,Wunderground v.1.15,2013-03-12 13:41:00,
2013-03-12 08:46:00,31.1,26.0,30.16,WNW,288,0.0,0.0,81,0.00,,,0.00,Wunderground v.1.15,2013-03-12 13:46:00,
2013-03-12 08:51:00,31.2,26.0,30.16,WNW,290,0.0,0.0,81,0.00,,,0.00,Wunderground v.1.15,2013-03-12 13:51:00,
2013-03-12 08:56:00,31.3,26.1,30.16,WNW,301,0.0,0.0,81,0.00,,,0.00,Wunderground v.1.15,2013-03-12 13:56:00,
2013-03-12 09:01:00,31.5,26.0,30.16,NNE,27,0.0,0.0,80,0.00,,,0.00,Wunderground v.1.15,2013-03-12 14:01:00,
2013-03-12 09:06:00,31.8,26.0,30.15,NW,315,0.0,2.0,79,0.00,,,0.00,Wunderground v.1.15,2013-03-12 14:06:00,
2013-03-12 09:16:00,32.7,26.3,30.14,WSW,240,1.0,1.0,77,0.00,,,0.00,Wunderground v.1.15,2013-03-12 14:16:00,
2013-03-12 09:21:00,33.1,26.0,30.14,WNW,290,1.0,1.0,75,0.00,,,0.00,Wunderground v.1.15,2013-03-12 14:21:00,
2013-03-12 09:31:00,33.4,25.3,30.15,WSW,253,1.0,2.0,72,0.00,,,0.00,Wunderground v.1.15,2013-03-12 14:31:00,
2013-03-12 09:36:00,33.8,26.1,30.15,West,272,1.0,2.0,73,0.00,,,0.00,Wunderground v.1.15,2013-03-12 14:36:00,
2013-03-12 09:41:00,34.3,25.5,30.16,WNW,302,1.0,2.0,70,0.00,,,0.00,Wunderground v.1.15,2013-03-12 14:41:00,
2013-03-12 09:46:00,34.5,25.7,30.17,WNW,294,1.0,2.0,70,0.00,,,0.00,Wunderground v.1.15,2013-03-12 14:46:00,
2013-03-12 09:56:00,35.0,25.1,30.18,West,272,2.0,5.0,67,0.00,,,0.00,Wunderground v.1.15,2013-03-12 14:56:00,
2013-03-12 10:06:00,35.5,25.3,30.18,West,277,2.0,2.0,66,0.00,,,0.00,Wunderground v.1.15,2013-03-12 15:06:00,
2013-03-12 10:16:00,36.1,25.5,30.18,WNW,300,1.0,2.0,65,0.00,,,0.00,Wunderground v.1.15,2013-03-12 15:16:00,
2013-03-12 10:26:00,36.3,24.9,30.18,NNE,22,1.0,1.0,63,0.00,,,0.00,Wunderground v.1.15,2013-03-12 15:26:00,
2013-03-12 10:31:00,36.6,25.2,30.18,WNW,291,1.0,1.0,63,0.00,,,0.00,Wunderground v.1.15,2013-03-12 15:31:00,
2013-03-12 10:41:00,37.3,25.5,30.17,WNW,295,1.0,1.0,62,0.00,,,0.00,Wunderground v.1.15,2013-03-12 15:41:00,
2013-03-12 10:46:00,37.9,24.8,30.17,West,264,1.0,1.0,59,0.00,,,0.00,Wunderground v.1.15,2013-03-12 15:46:00,
2013-03-12 11:01:00,39.1,25.1,30.18,WNW,302,2.0,2.0,57,0.00,,,0.00,Wunderground v.1.15,2013-03-12 16:01:00,
2013-03-12 11:11:00,40.3,25.8,30.17,West,281,1.0,1.0,56,0.00,,,0.00,Wunderground v.1.15,2013-03-12 16:11:00,
2013-03-12 11:21:00,42.0,26.1,30.17,NW,308,1.0,2.0,53,0.00,,,0.00,Wunderground v.1.15,2013-03-12 16:21:00,
2013-03-12 11:31:00,42.3,25.0,30.17,WNW,287,1.0,1.0,50,0.00,,,0.00,Wunderground v.1.15,2013-03-12 16:31:00,
2013-03-12 11:36:00,42.6,24.3,30.17,West,278,2.0,2.0,48,0.00,,,0.00,Wunderground v.1.15,2013-03-12 16:36:00,
2013-03-12 11:41:00,43.0,25.1,30.17,WSW,257,1.0,1.0,49,0.00,,,0.00,Wunderground v.1.15,2013-03-12 16:41:00,
2013-03-12 11:46:00,43.9,24.9,30.17,NW,322,1.0,1.0,47,0.00,,,0.00,Wunderground v.1.15,2013-03-12 16:46:00,
2013-03-12 11:56:00,43.9,25.5,30.17,NNE,15,2.0,2.0,48,0.00,,,0.00,Wunderground v.1.15,2013-03-12 16:56:00,
2013-03-12 12:11:00,44.8,25.8,30.17,WNW,293,2.0,2.0,47,0.00,,,0.00,Wunderground v.1.15,2013-03-12 17:11:00,
2013-03-12 12:16:00,45.3,27.2,30.17,NW,304,1.0,2.0,49,0.00,,,0.00,Wunderground v.1.15,2013-03-12 17:16:00,
2013-03-12 12:26:00,46.6,27.4,30.16,WSW,255,1.0,1.0,47,0.00,,,0.00,Wunderground v.1.15,2013-03-12 17:26:00,
2013-03-12 12:31:00,46.7,26.5,30.17,NW,308,2.0,2.0,45,0.00,,,0.00,Wunderground v.1.15,2013-03-12 17:31:00,
2013-03-12 12:36:00,46.6,26.9,30.17,WSW,249,2.0,2.0,46,0.00,,,0.00,Wunderground v.1.15,2013-03-12 17:36:00,
2013-03-12 12:41:00,47.1,27.4,30.16,West,262,1.0,1.0,46,0.00,,,0.00,Wunderground v.1.15,2013-03-12 17:41:00,
2013-03-12 12:51:00,47.6,26.7,30.16,West,259,2.0,2.0,44,0.00,,,0.00,Wunderground v.1.15,2013-03-12 17:51:00,
2013-03-12 12:56:00,47.8,25.2,30.16,WSW,257,2.0,4.0,41,0.00,,,0.00,Wunderground v.1.15,2013-03-12 17:56:00,
2013-03-12 13:01:00,48.3,26.2,30.16,WNW,295,2.0,2.0,42,0.00,,,0.00,Wunderground v.1.15,2013-03-12 18:01:00,
2013-03-12 13:06:00,49.0,25.1,30.15,WNW,302,2.0,2.0,39,0.00,,,0.00,Wunderground v.1.15,2013-03-12 18:06:00,
2013-03-12 13:11:00,49.5,26.7,30.15,West,261,2.0,7.0,41,0.00,,,0.00,Wunderground v.1.15,2013-03-12 18:11:00,
2013-03-12 13:16:00,48.9,25.0,30.16,WNW,302,2.0,7.0,39,0.00,,,0.00,Wunderground v.1.15,2013-03-12 18:16:00,
2013-03-12 13:21:00,49.0,26.9,30.15,NW,311,2.0,2.0,42,0.00,,,0.00,Wunderground v.1.15,2013-03-12 18:21:00,
2013-03-12 13:31:00,49.6,26.2,30.15,NW,319,1.0,1.0,40,0.00,,,0.00,Wunderground v.1.15,2013-03-12 18:31:00,
2013-03-12 13:41:00,49.8,24.5,30.14,WNW,285,2.0,2.0,37,0.00,,,0.00,Wunderground v.1.15,2013-03-12 18:41:00,
2013-03-12 13:51:00,49.7,26.3,30.14,WNW,284,3.0,3.0,40,0.00,,,0.00,Wunderground v.1.15,2013-03-12 18:51:00,
2013-03-12 14:01:00,50.5,25.2,30.14,WNW,297,2.0,3.0,37,0.00,,,0.00,Wunderground v.1.15,2013-03-12 19:01:00,
2013-03-12 14:06:00,50.8,26.1,30.13,WNW,290,2.0,3.0,38,0.00,,,0.00,Wunderground v.1.15,2013-03-12 19:06:00,
2013-03-12 14:11:00,51.2,25.1,30.14,NW,307,2.0,5.0,36,0.00,,,0.00,Wunderground v.1.15,2013-03-12 19:11:00,
2013-03-12 14:16:00,51.5,27.9,30.13,SE,142,2.0,5.0,40,0.00,,,0.00,Wunderground v.1.15,2013-03-12 19:16:00,
2013-03-12 14:36:00,51.6,25.5,30.12,North,349,3.0,3.0,36,0.00,,,0.00,Wunderground v.1.15,2013-03-12 19:36:00,
2013-03-12 14:46:00,51.4,23.9,30.12,NNW,342,5.0,5.0,34,0.00,,,0.00,Wunderground v.1.15,2013-03-12 19:46:00,
2013-03-12 15:06:00,51.4,23.2,30.11,WSW,251,4.0,4.0,33,0.00,,,0.00,Wunderground v.1.15,2013-03-12 20:06:00,
2013-03-12 15:11:00,51.1,23.7,30.11,WSW,253,3.0,3.0,34,0.00,,,0.00,Wunderground v.1.15,2013-03-12 20:11:00,
2013-03-12 15:31:00,52.7,25.1,30.11,West,277,3.0,3.0,34,0.00,,,0.00,Wunderground v.1.15,2013-03-12 20:31:00,
2013-03-12 15:36:00,52.8,24.5,30.11,WSW,252,3.0,3.0,33,0.00,,,0.00,Wunderground v.1.15,2013-03-12 20:36:00,
2013-03-12 15:41:00,52.3,25.4,30.11,NNW,338,3.0,3.0,35,0.00,,,0.00,Wunderground v.1.15,2013-03-12 20:41:00,
2013-03-12 15:51:00,51.7,26.2,30.11,West,280,3.0,3.0,37,0.00,,,0.00,Wunderground v.1.15,2013-03-12 20:51:00,
2013-03-12 15:56:00,52.1,25.3,30.11,NNW,328,3.0,3.0,35,0.00,,,0.00,Wunderground v.1.15,2013-03-12 20:56:00,
2013-03-12 16:01:00,52.3,25.4,30.11,NW,305,3.0,3.0,35,0.00,,,0.00,Wunderground v.1.15,2013-03-12 21:01:00,
2013-03-12 16:06:00,51.2,24.5,30.11,WNW,295,4.0,6.0,35,0.00,,,0.00,Wunderground v.1.15,2013-03-12 21:06:00,
2013-03-12 16:11:00,51.0,25.0,30.11,NNW,338,4.0,4.0,36,0.00,,,0.00,Wunderground v.1.15,2013-03-12 21:11:00,
2013-03-12 16:21:00,51.2,24.5,30.11,NW,317,3.0,8.0,35,0.00,,,0.00,Wunderground v.1.15,2013-03-12 21:21:00,
2013-03-12 16:26:00,50.4,24.4,30.12,NNW,335,4.0,8.0,36,0.00,,,0.00,Wunderground v.1.15,2013-03-12 21:26:00,
2013-03-12 16:41:00,49.9,24.6,30.12,NW,310,3.0,3.0,37,0.00,,,0.00,Wunderground v.1.15,2013-03-12 21:41:00,
2013-03-12 16:46:00,50.2,24.9,30.12,NW,314,3.0,4.0,37,0.00,,,0.00,Wunderground v.1.15,2013-03-12 21:46:00,
2013-03-12 16:56:00,49.9,23.3,30.12,WNW,297,6.0,6.0,35,0.00,,,0.00,Wunderground v.1.15,2013-03-12 21:56:00,
2013-03-12 17:01:00,50.2,24.2,30.12,WSW,257,4.0,4.0,36,0.00,,,0.00,Wunderground v.1.15,2013-03-12 22:01:00,
2013-03-12 17:11:00,50.1,24.2,30.12,WSW,255,4.0,4.0,36,0.00,,,0.00,Wunderground v.1.15,2013-03-12 22:11:00,
2013-03-12 17:16:00,49.6,23.7,30.12,West,263,3.0,4.0,36,0.00,,,0.00,Wunderground v.1.15,2013-03-12 22:16:00,
2013-03-12 17:26:00,48.2,23.1,30.13,WSW,243,5.0,5.0,37,0.00,,,0.00,Wunderground v.1.15,2013-03-12 22:26:00,
2013-03-12 17:31:00,48.0,24.2,30.13,SE,136,4.0,5.0,39,0.00,,,0.00,Wunderground v.1.15,2013-03-12 22:31:00,
2013-03-12 17:51:00,47.1,24.6,30.13,WSW,239,3.0,4.0,41,0.00,,,0.00,Wunderground v.1.15,2013-03-12 22:51:00,
2013-03-12 18:01:00,46.9,25.5,30.13,SW,222,4.0,4.0,43,0.00,,,0.00,Wunderground v.1.15,2013-03-12 23:01:00,
2013-03-12 18:06:00,47.0,25.1,30.13,West,261,4.0,4.0,42,0.00,,,0.00,Wunderground v.1.15,2013-03-12 23:06:00,
2013-03-12 18:11:00,46.8,26.6,30.14,NNE,16,3.0,3.0,45,0.00,,,0.00,Wunderground v.1.15,2013-03-12 23:11:00,
2013-03-12 18:16:00,46.3,26.1,30.14,WSW,256,3.0,4.0,45,0.00,,,0.00,Wunderground v.1.15,2013-03-12 23:16:00,
2013-03-12 18:31:00,45.3,26.2,30.15,West,276,3.0,3.0,47,0.00,,,0.00,Wunderground v.1.15,2013-03-12 23:31:00,
2013-03-12 18:36:00,45.0,27.5,30.15,NNE,16,1.0,3.0,50,0.00,,,0.00,Wunderground v.1.15,2013-03-12 23:36:00,
2013-03-12 18:41:00,44.6,27.6,30.16,West,266,1.0,4.0,51,0.00,,,0.00,Wunderground v.1.15,2013-03-12 23:41:00,
2013-03-12 18:46:00,44.2,28.1,30.16,North,8,2.0,4.0,53,0.00,,,0.00,Wunderground v.1.15,2013-03-12 23:46:00,
2013-03-12 18:51:00,43.3,29.5,30.16,WNW,293,3.0,3.0,58,0.00,,,0.00,Wunderground v.1.15,2013-03-12 23:51:00,
2013-03-12 19:01:00,42.2,29.3,30.16,NW,314,2.0,2.0,60,0.00,,,0.00,Wunderground v.1.15,2013-03-13 00:01:00,
2013-03-12 19:11:00,42.0,28.3,30.17,NW,308,1.0,6.0,58,0.00,,,0.00,Wunderground v.1.15,2013-03-13 00:11:00,
2013-03-12 19:16:00,42.0,27.4,30.17,NW,316,2.0,6.0,56,0.00,,,0.00,Wunderground v.1.15,2013-03-13 00:16:00,
2013-03-12 19:26:00,41.7,27.1,30.18,NNE,21,1.0,2.0,56,0.00,,,0.00,Wunderground v.1.15,2013-03-13 00:26:00,
2013-03-12 19:31:00,41.2,26.7,30.18,NW,316,1.0,1.0,56,0.00,,,0.00,Wunderground v.1.15,2013-03-13 00:31:00,
2013-03-12 19:41:00,40.6,26.1,30.19,NNE,25,2.0,2.0,56,0.00,,,0.00,Wunderground v.1.15,2013-03-13 00:41:00,
2013-03-12 19:46:00,40.3,25.8,30.19,NNE,23,2.0,3.0,56,0.00,,,0.00,Wunderground v.1.15,2013-03-13 00:46:00,
2013-03-12 19:56:00,40.1,25.6,30.20,NE,56,2.0,3.0,56,0.00,,,0.00,Wunderground v.1.15,2013-03-13 00:56:00,
2013-03-12 20:01:00,39.9,25.0,30.20,West,261,2.0,4.0,55,0.00,,,0.00,Wunderground v.1.15,2013-03-13 01:01:00,
2013-03-12 20:06:00,39.8,24.9,30.20,NNW,339,2.0,4.0,55,0.00,,,0.00,Wunderground v.1.15,2013-03-13 01:06:00,
2013-03-12 20:16:00,39.5,25.1,30.20,West,270,1.0,1.0,56,0.00,,,0.00,Wunderground v.1.15,2013-03-13 01:16:00,
2013-03-12 20:21:00,39.3,24.9,30.21,West,260,0.0,1.0,56,0.00,,,0.00,Wunderground v.1.15,2013-03-13 01:21:00,
2013-03-12 20:26:00,39.2,24.8,30.21,NE,36,1.0,1.0,56,0.00,,,0.00,Wunderground v.1.15,2013-03-13 01:26:00,
2013-03-12 20:31:00,39.0,24.6,30.21,WNW,285,1.0,1.0,56,0.00,,,0.00,Wunderground v.1.15,2013-03-13 01:31:00,
2013-03-12 20:36:00,38.9,24.5,30.21,NNE,33,1.0,1.0,56,0.00,,,0.00,Wunderground v.1.15,2013-03-13 01:36:00,
2013-03-12 20:41:00,38.7,23.9,30.20,WNW,298,1.0,1.0,55,0.00,,,0.00,Wunderground v.1.15,2013-03-13 01:41:00,
2013-03-12 20:46:00,38.7,23.9,30.21,West,264,1.0,1.0,55,0.00,,,0.00,Wunderground v.1.15,2013-03-13 01:46:00,
2013-03-12 20:51:00,38.6,23.8,30.21,NNW,329,2.0,2.0,55,0.00,,,0.00,Wunderground v.1.15,2013-03-13 01:51:00,
2013-03-12 20:56:00,38.5,23.7,30.21,West,274,1.0,2.0,55,0.00,,,0.00,Wunderground v.1.15,2013-03-13 01:56:00,
2013-03-12 21:01:00,38.5,23.7,30.21,WSW,245,1.0,1.0,55,0.00,,,0.00,Wunderground v.1.15,2013-03-13 02:01:00,
2013-03-12 21:11:00,38.2,23.4,30.21,West,277,1.0,1.0,55,0.00,,,0.00,Wunderground v.1.15,2013-03-13 02:11:00,
2013-03-12 21:16:00,38.2,23.9,30.21,WNW,285,1.0,1.0,56,0.00,,,0.00,Wunderground v.1.15,2013-03-13 02:16:00,
2013-03-12 21:21:00,38.0,23.7,30.22,NW,323,1.0,1.0,56,0.00,,,0.00,Wunderground v.1.15,2013-03-13 02:21:00,
2013-03-12 21:26:00,37.9,23.6,30.22,West,279,1.0,2.0,56,0.00,,,0.00,Wunderground v.1.15,2013-03-13 02:26:00,
2013-03-12 21:36:00,37.8,23.9,30.22,West,271,2.0,2.0,57,0.00,,,0.00,Wunderground v.1.15,2013-03-13 02:36:00,
2013-03-12 21:41:00,37.6,24.1,30.22,North,354,1.0,1.0,58,0.00,,,0.00,Wunderground v.1.15,2013-03-13 02:41:00,
2013-03-12 21:51:00,37.5,24.9,30.22,NW,322,1.0,1.0,60,0.00,,,0.00,Wunderground v.1.15,2013-03-13 02:51:00,
2013-03-12 21:56:00,37.4,24.8,30.23,NW,304,1.0,1.0,60,0.00,,,0.00,Wunderground v.1.15,2013-03-13 02:56:00,
2013-03-12 22:06:00,37.1,24.9,30.23,NW,316,1.0,1.0,61,0.00,,,0.00,Wunderground v.1.15,2013-03-13 03:06:00,
2013-03-12 22:11:00,37.1,25.3,30.23,WNW,298,1.0,1.0,62,0.00,,,0.00,Wunderground v.1.15,2013-03-13 03:11:00,
2013-03-12 22:16:00,37.0,25.6,30.23,NW,321,1.0,1.0,63,0.00,,,0.00,Wunderground v.1.15,2013-03-13 03:16:00,
2013-03-12 22:21:00,36.9,25.5,30.23,West,274,1.0,2.0,63,0.00,,,0.00,Wunderground v.1.15,2013-03-13 03:21:00,
2013-03-12 22:31:00,36.7,25.7,30.24,NNE,27,1.0,1.0,64,0.00,,,0.00,Wunderground v.1.15,2013-03-13 03:31:00,
2013-03-12 22:36:00,36.5,25.5,30.23,North,349,0.0,2.0,64,0.00,,,0.00,Wunderground v.1.15,2013-03-13 03:36:00,
2013-03-12 22:46:00,36.4,25.4,30.24,WSW,256,1.0,1.0,64,0.00,,,0.00,Wunderground v.1.15,2013-03-13 03:46:00,
2013-03-12 23:01:00,36.2,25.6,30.25,West,260,1.0,6.0,65,0.00,,,0.00,Wunderground v.1.15,2013-03-13 04:01:00,
2013-03-12 23:06:00,36.1,25.1,30.25,NW,318,2.0,6.0,64,0.00,,,0.00,Wunderground v.1.15,2013-03-13 04:06:00,
2013-03-12 23:16:00,36.1,25.5,30.25,NW,313,1.0,4.0,65,0.00,,,0.00,Wunderground v.1.15,2013-03-13 04:16:00,
2013-03-12 23:21:00,36.2,24.8,30.25,NNW,328,2.0,2.0,63,0.00,,,0.00,Wunderground v.1.15,2013-03-13 04:21:00,
2013-03-12 23:31:00,36.3,24.1,30.25,NW,305,2.0,2.0,61,0.00,,,0.00,Wunderground v.1.15,2013-03-13 04:31:00,
2013-03-12 23:41:00,36.1,23.5,30.25,NE,38,1.0,1.0,60,0.00,,,0.00,Wunderground v.1.15,2013-03-13 04:41:00,
2013-03-12 23:56:00,35.9,22.5,30.26,West,273,2.0,2.0,58,0.00,,,0.00,Wunderground v.1.15,2013-03-13 04:56:00,